EW5206 Weather Reports


time (UTC)temp
C
wind
direction
speed
KPH
gust
KPH
rain 1hr
cm
rain 24hr
cm
rain mn
cm
humidity
%
barometer
mb
20210920064539 20 182 0.0 0.0 0.00 0.03 0.00 91 1021.2
20210920063053 20 153 0.0 0.0 0.00 0.03 0.00 90 1021.3
20210920061526 20 153 0.0 0.0 0.00 0.03 0.00 90 1021.3
20210920060106 20 153 0.0 0.0 0.00 0.03 0.00 89 1021.3
20210920054608 20 153 0.0 0.0 0.00 0.03 0.00 88 1021.3
20210920053108 21 153 0.0 0.0 0.00 0.03 0.00 87 1021.2
20210920051526 21 157 0.0 0.0 0.00 0.03 0.00 87 1021.1
20210920050030 21 180 0.0 0.0 0.00 0.03 0.00 86 1021.2
20210920044519 21 180 0.0 0.0 0.00 0.03 0.00 85 1021.1
20210920043016 21 183 0.0 0.0 0.00 0.03 0.00 85 1021.2
20210920041534 21 183 0.0 0.0 0.00 0.03 0.00 85 1021.2
20210920040030 21 183 0.0 0.0 0.00 0.03 0.00 84 1021.1
20210920034525 21 183 0.0 0.0 0.00 0.03 0.03 84 1021.0
20210920033010 21 183 0.0 0.0 0.00 0.03 0.03 84 1021.0
20210920031517 21 183 0.0 0.0 0.00 0.03 0.03 84 1021.0
20210920030019 21 183 0.0 0.0 0.00 0.03 0.03 83 1021.0
20210920024508 21 183 0.0 0.0 0.00 0.03 0.03 82 1020.9
20210920023008 21 147 0.0 0.0 0.00 0.03 0.03 81 1020.8
20210920021520 21 147 0.0 0.0 0.00 0.03 0.03 81 1020.7
20210920020010 22 147 0.0 0.0 0.00 0.03 0.03 80 1020.6
20210920014507 22 147 0.0 0.0 0.00 0.05 0.03 79 1020.5
20210920013006 21 147 0.0 0.0 0.00 0.05 0.03 80 1020.4
20210920011510 21 147 0.0 0.0 0.00 0.05 0.03 79 1020.1
20210920010007 21 147 0.0 0.0 0.00 0.05 0.03 81 1020.1
20210920004539 21 147 0.0 0.0 0.00 0.30 0.03 82 1019.9
20210920003005 22 147 0.0 0.0 0.00 0.30 0.03 82 1019.7
20210920001504 22 147 0.0 0.0 0.00 0.30 0.03 81 1019.7
20210920000004 22 147 0.0 0.0 0.00 0.30 0.03 81 1019.7
20210919234517 22 147 0.0 0.0 0.00 1.22 0.03 79 1019.6
20210919233002 23 147 0.0 0.0 0.00 1.22 0.03 78 1019.6
20210919231502 23 147 0.0 0.0 0.00 1.22 0.03 76 1019.5
20210919230000 24 147 0.0 0.0 0.00 1.22 0.03 74 1019.4
20210919224612 24 147 0.0 0.0 0.00 1.22 0.03 73 1019.5
20210919224500 24 147 0.0 0.0 0.00 1.22 0.03 73 1019.5
20210919223103 25 147 0.0 0.0 0.00 1.22 0.03 71 1019.4
20210919221801 25 147 0.0 0.0 0.00 1.22 0.03 70 1019.2
20210919220124 25 147 0.0 0.0 0.00 1.22 0.03 69 1019.1
20210919214658 26 153 0.0 0.0 0.00 1.22 0.03 67 1019.0
20210919213128 26 167 0.0 0.0 0.00 1.22 0.03 64 1018.7
20210919211656 26 167 0.0 0.0 0.00 1.22 0.03 67 1018.9
20210919210148 26 24 0.0 0.0 0.00 1.22 0.03 66 1018.9
20210919204622 27 5 0.0 0.0 0.00 1.22 0.03 63 1019.0
20210919203136 27 179 0.0 0.0 0.00 1.22 0.03 64 1019.1
20210919201707 27 183 0.0 0.0 0.00 1.22 0.03 60 1019.2
20210919200128 26 267 0.0 0.0 0.00 1.22 0.03 68 1019.5
20210919194607 26 187 0.0 0.0 0.00 1.22 0.03 69 1019.7
20210919193103 26 190 0.0 0.0 0.00 1.22 0.03 69 1019.9
20210919191546 26 190 0.0 0.0 0.00 1.22 0.03 73 1020.1
20210919190056 26 190 1.6 6.4 0.00 1.22 0.03 66 1020.2
20210919184558 27 197 1.6 8.0 0.00 1.22 0.03 65 1020.3
20210919183118 27 155 1.6 8.0 0.00 1.22 0.03 64 1020.3
20210919181651 27 212 0.0 8.0 0.00 1.22 0.03 71 1020.5
20210919180157 26 181 1.6 6.4 0.00 1.22 0.03 64 1020.6
20210919174609 26 166 0.0 8.0 0.00 1.22 0.03 72 1020.8
20210919173121 26 166 0.0 0.0 0.00 1.22 0.03 64 1021.0
20210919171626 27 338 0.0 0.0 0.00 1.22 0.03 70 1021.2
20210919170138 26 171 0.0 0.0 0.00 1.22 0.03 69 1021.3
20210919164600 26 189 0.0 0.0 0.00 1.22 0.03 77 1021.5
20210919163049 26 211 0.0 0.0 0.00 1.22 0.03 80 1021.6
20210919161613 25 178 0.0 0.0 0.00 1.22 0.03 79 1021.7
20210919160038 25 169 0.0 0.0 0.00 1.22 0.03 78 1021.8
20210919154539 25 175 0.0 0.0 0.00 1.22 0.03 80 1021.9
20210919153057 23 166 0.0 0.0 0.00 1.22 0.03 83 1022.0
20210919151521 23 188 0.0 0.0 0.00 1.22 0.03 88 1022.0
20210919150048 22 185 0.0 0.0 0.00 1.22 0.03 90 1022.0
20210919144515 21 198 0.0 0.0 0.00 1.22 0.03 92 1021.9
20210919143034 21 173 0.0 0.0 0.00 1.22 0.03 93 1021.9
20210919141509 21 166 0.0 0.0 0.00 1.22 0.03 93 1021.9
20210919140124 20 5 0.0 0.0 0.00 1.22 0.03 93 1021.8
20210919134640 20 5 0.0 0.0 0.00 1.22 0.03 96 1021.7
20210919133259 20 5 0.0 0.0 0.00 1.22 0.03 97 1021.6
20210919131608 19 5 0.0 0.0 0.00 1.22 0.03 97 1021.5
20210919130112 18 5 0.0 0.0 0.00 1.22 0.03 97 1021.3
20210919124553 18 5 0.0 0.0 0.00 1.22 0.03 98 1021.4
20210919123125 18 5 0.0 0.0 0.00 1.22 0.03 98 1021.3
20210919121700 17 5 0.0 0.0 0.00 1.22 0.03 98 1021.3
20210919120144 16 5 0.0 0.0 0.00 1.22 0.03 98 1021.2
20210919114655 16 5 0.0 0.0 0.00 1.22 0.03 97 1021.1
20210919113121 16 5 0.0 0.0 0.00 1.22 0.03 97 1020.9
20210919111615 16 5 0.0 0.0 0.03 1.22 0.03 97 1020.7
20210919110124 17 5 0.0 0.0 0.03 1.22 0.03 97 1020.6
20210919104539 17 5 0.0 0.0 0.03 1.22 0.03 98 1020.4
20210919103038 17 5 0.0 0.0 0.03 1.22 0.03 97 1020.2
20210919101552 17 5 0.0 0.0 0.00 1.19 0.00 97 1020.1
20210919100029 17 5 0.0 0.0 0.00 1.19 0.00 97 1020.0
20210919094627 17 5 0.0 0.0 0.00 1.19 0.00 97 1020.0
20210919093032 17 5 0.0 0.0 0.00 1.19 0.00 97 1019.9
20210919091555 17 5 0.0 0.0 0.00 1.19 0.00 97 1019.8
20210919090047 17 5 0.0 0.0 0.00 1.19 0.00 97 1019.8
20210919084539 17 5 0.0 0.0 0.00 1.19 0.00 97 1019.8
20210919083026 17 5 0.0 0.0 0.00 1.19 0.00 97 1019.9
20210919081546 17 5 0.0 0.0 0.00 1.19 0.00 97 1019.8
20210919080054 17 5 0.0 0.0 0.00 1.19 0.00 97 1019.7
20210919074544 17 5 0.0 0.0 0.00 1.19 0.00 97 1020.0
20210919073024 17 5 0.0 0.0 0.00 1.19 0.00 97 1020.0
20210919071517 17 5 0.0 0.0 0.00 1.19 0.00 97 1020.1
20210919070025 17 5 0.0 0.0 0.00 1.19 0.00 97 1020.1